User: anonymous   Login
Location: Asni�res
(49.1337°N, 2.3555°E)
Time: 10:37:27
(UTC+00:00)
Language:

deb Kiku-4 - Orbit

View from above orbital plane
View from above orbital plane
View from above satellite
View from above satellite

Ground track
Ground track

The orbit data is extracted from the following two-line orbital elements,

1 14569U 82087D   22228.36603443 -.00000088  00000-0  33812-4 0  9993
2 14569  44.8426 101.8489 0122639 207.9248 327.6049 13.55710339 14587
Epoch (UTC): 16 August 2022 08:47:05
Eccentricity: 0.0122639
inclination: 44.8426°
perigee height: 960 km
apogee height: 1142 km
right ascension of ascending node: 101.8489°
argument of perigee: 207.9248°
revolutions per day: 13.55710339
mean anomaly at epoch: 327.6049°
orbit number at epoch: 1458

The dashed part of the orbit path shows where the satellite is in the earth's shadow,  

DLR